7 * 24
多渠道服务支持
VICTUS HAZE PUMA(NORAD编号69646)是美国太空军“战术响应太空”(VICTUS)项目下的任务卫星,原计划2025年发射,因火箭异常推迟至2026年6月由火箭实验室(Rocket Lab)的Electron火箭从新西兰玛希亚半岛发射场执行发射。 该任务是美军快速响应太空能力验证的重要组成部分,旨在锤炼短时间内完成卫星部署、快速补网的能力,支撑战场空间态势感知需求,具体载荷参数与任务细节属于未公开的军方机密内容。截至2026年6月,该卫星正处于待发射状态,入轨后将纳入美军太空监视网络统一管控。
美国
(US)
| 数据来源 | 国际轨道数据 |
| 星历时间: | 2026-06-20T15:05:12+0800 1天前 查看轨道信息 |
| 半长轴: | 6781.89km |
| 偏心率: | 0.008385 |
| 轨道倾角: | 97.447° |
| 近地点辐角 | 248.718° |
| 升交点赤经 | 68.824° |
| 平近点角 | 110.511° |
| 近地点: | 346.886km |
| 远地点: | 460.62km |
| 周期: | 92.637分钟 |
| 每日圈数: | 15.544498 |